ARIANE 1 DEB, 40779

Orbit data source: Space-Track

ARIANE 1 DEB, 40779 is space debris in HEO originally from a launch on Mon, 24 Dec 1979 UTC launched from the French Guiana (FRGUI). Debris objects in space refer to the collection of defunct objects orbiting the Earth. Examples of debris include non-operational satellites, rocket bodies, and fragments generated from explosions, collisions, or faulty payload assembly.

Loading next visibility...
Identifier
40779, 1979-104AG
Orbit
HEO
Last TLE update
8 months ago
Origin
Manufacturer
Unknown
Mission
Spacecraft
Bus & Motor
Unknown
Mass
Unknown
Launch date (UTC)
1979-12-24 (46 years ago)
Launch vehicle
Unknown
Launch site
French Guiana (FRGUI)
Object type
Payload
Rocket body
Debris
Shape & HBR
Unknown
Radar Cross Section
Medium (>0.1 m² and <1 m²)

Expand to show TLE details & history

TLE from 8 months ago
0 ARIANE 1 DEB
1 40779U 79104AG  24307.29666316  .00000543  00000-0  20084-1 0  9990
2 40779  19.5760 359.2816 7285747 289.9833   9.4422  2.07454718 20194
Epoch: 2024-11-02T07:07Z
TLE epoch observation values (Epoch: 2024-11-02T07:07:11.697Z)
Latitude
0.00016°
Longitude
-149.59907°
Altitude
3,421.449 km
Speed
8.124 km/s
True Right ascension
23h 57m 00s
True Declination
0° 00' 01"
Sunlit
Object was in daylight at epoch
Visualization orbit readout
Latitude
-11.69402°
Longitude
98.62358°
Altitude
9,174.927 km
Speed
5.991 km/s
Apparent Right ascension
15h 17m 50s
Apparent Declination
-28° 46' 12"
Sunlit
Object is in daylight
Visualization observer readout
Local Sidereal Time
20:14:07
Azimuth
238.156° WSW
Elevation
-7.141°
Doppler factor
1
Orbital elements
Apogee altitude
38,518.6 km
Perigee altitude
671.666 km
Semi-major axis
25,973.27 km
Eccentricity
0.72857
Inclination
19.576°
RAAN
359.2816°
Arg. of periapsis
289.9833°
True anomaly
Unknown
Mean anomaly
9.4422°
Eccentric anomaly
Unknown
Mean motion
0.51851 °/min
Orbital period
694.3 mins
BSTAR
0.020084
Loading maneuver chart data...
Loading SW <> Apogee altitude chart data...
Loading historical data...
Loading historical data...
Loading historical data...
Loading historical data...
Loading historical data...
Loading historical data...
Loading historical data...

ARIANE 1 DEB Visibility forecast

Observer location: undefined°, undefined°

Span
Click to sort rows by Start time (UTC) header in descending order
Start Az.
Max El. time (UTC)
Max El. Az.
Max El.
End time (UTC)
End Az.
331 mins2025-07-06 21:06:18.850Z237.387° WSW2025-07-06 22:18:18.850Z206.034° SW22.474°2025-07-07 02:37:18.850Z224.506° SW
|